FLOCK 4BE-9 (60514 NORAD) Tracking and Keplerian Element Data

This shows tracking and keplerian element data for the satellite.

Feedback or suggestion? Click here.




ElementValue
Catalog60514
NameFLOCK 4BE-9
Epoch Orbit864
Epoch Day286.73899407
Epoch Year2024
RAAN1.4851
Inclination97.4392
Eccentricity0.0003408
Argument of Perigee319.1348
Mean Anonmoly40.9631
Mean Motion15.20351035
Decay Rate0.00018579
L11 60514U 24149AY 24286.73899407 .00018579 00000+0 85544-3 0 9993
L22 60514 97.4392 1.4851 0003408 319.1348 40.9631 15.20351035 8641



Live tracking and technical data element details for FLOCK 4BE-9 (NORAD 60514). FLOCK 4BE-9 can be tracked NOW for your location showing map with azimuth and elevation plus other details from your city location.







IsCatalogInMostPopularTable: catalog: 60514, numindb: 6
Update: records affected: 1



GetName: 60514 FLOCK 4BE-9

Hit Count: updated at: Fri, 06 Dec 2024 11:09:19 GMT